Temp
-9 -9 -9 -9 -9 -9 -10 -10 -10 -10 -10 -10 -10 -10 -10 -10 -10 -10 -10 -11 -11 -11 -11 -11 -10 -10 -10 -10 -10 -10 -10 -10 -10 -10 -10 -9 -9 -9 -9 -10 -10 -9
-9 -9 -10 -10 -10 -10 -10 -10 -10 -10 -10 -10 -10 -10 -10 -11 -11 -11 -11 -11 -11 -11 -11 -11 -11 -11 -10 -10 -10 -10 -10 -10 -10 -10 -10 -10 -9 -9 -9 -9 -10 -9
-9 -9 -10 -10 -10 -10 -10 -10 -10 -10 -10 -10 -10 -10 -11 -11 -11 -11 -11 -11 -11 -11 -11 -11 -11 -11 -11 -11 -11 -10 -10 -10 -10 -10 -10 -10 -10 -9 -9 -9 -9 -9
-9 -10 -10 -10 -10 -10 -10 -10 -11 -11 -11 -11 -11 -11 -11 -11 -11 -11 -11 -11 -11 -11 -12 -11 -11 -11 -11 -11 -11 -11 -10 -10 -10 -10 -9 -9 -9 -9 -9 -9 -9 -9
-10 -10 -10 -10 -10 -10 -10 -11 -11 -11 -11 -11 -11 -11 -11 -11 -11 -11 -11 -11 -11 -11 -12 -12 -12 -11 -11 -11 -11 -11 -10 -10 -10 -10 -9 -9 -9 -9 -9 -9 -9 -9
-10 -10 -10 -10 -10 -11 -11 -11 -11 -11 -11 -11 -11 -11 -11 -11 -11 -11 -11 -11 -11 -11 -12 -12 -12 -11 -11 -11 -11 -11 -11 -10 -10 -10 -9 -9 -9 -9 -9 -9 -9 -9
-10 -10 -10 -10 -10 -11 -11 -11 -11 -11 -11 -11 -11 -11 -11 -11 -11 -11 -11 -12 -12 -12 -12 -12 -12 -12 -12 -12 -12 -11 -11 -11 -10 -10 -10 -9 -9 -9 -9 -9 -9 -9
-10 -10 -10 -10 -10 -11 -11 -11 -11 -11 -11 -11 -11 -11 -11 -11 -11 -11 -12 -12 -12 -12 -12 -12 -12 -12 -12 -12 -12 -12 -11 -11 -11 -10 -10 -9 -9 -9 -10 -10 -9 -9
-10 -10 -10 -10 -11 -11 -11 -11 -11 -12 -12 -12 -12 -11 -11 -11 -12 -12 -12 -12 -13 -13 -13 -13 -13 -13 -12 -12 -12 -12 -12 -11 -11 -10 -10 -10 -9 -9 -10 -10 -9 -9
-10 -10 -10 -10 -11 -11 -11 -11 -12 -12 -12 -12 -12 -12 -12 -12 -12 -12 -13 -13 -13 -13 -13 -13 -13 -13 -13 -13 -13 -12 -12 -11 -11 -10 -10 -10 -10 -10 -9 -9 -9 -9
-10 -10 -10 -11 -11 -11 -11 -12 -12 -12 -12 -12 -12 -12 -12 -12 -12 -13 -13 -13 -13 -13 -13 -13 -13 -13 -13 -13 -13 -12 -12 -11 -11 -11 -10 -10 -10 -10 -10 -10 -9 -9
-10 -10 -11 -11 -11 -11 -12 -12 -12 -12 -12 -12 -12 -12 -12 -12 -12 -13 -13 -13 -13 -13 -13 -13 -13 -13 -13 -13 -13 -12 -12 -12 -11 -11 -11 -11 -10 -10 -10 -10 -10 -9
-11 -11 -11 -11 -11 -12 -12 -12 -12 -13 -12 -12 -12 -12 -12 -12 -12 -13 -13 -13 -13 -13 -13 -13 -13 -13 -13 -13 -13 -12 -11 -11 -11 -11 -11 -11 -11 -11 -10 -10 -10 -9
-11 -11 -11 -11 -12 -12 -12 -12 -12 -13 -13 -12 -12 -12 -12 -12 -12 -13 -13 -13 -13 -13 -13 -13 -13 -13 -13 -12 -12 -12 -12 -11 -11 -11 -11 -11 -11 -11 -11 -10 -10 -10
-11 -11 -12 -12 -12 -12 -12 -12 -12 -13 -13 -12 -12 -12 -12 -12 -12 -12 -12 -13 -13 -13 -13 -13 -13 -13 -13 -12 -12 -12 -12 -12 -12 -11 -11 -11 -11 -11 -11 -10 -10 -10
-11 -12 -12 -12 -12 -12 -12 -13 -13 -13 -13 -12 -12 -12 -12 -12 -12 -12 -12 -12 -12 -13 -13 -13 -13 -13 -12 -12 -12 -12 -12 -12 -12 -11 -11 -11 -11 -11 -10 -10 -10 -10
-12 -12 -12 -12 -13 -13 -12 -13 -13 -13 -13 -13 -13 -12 -12 -12 -13 -13 -12 -12 -13 -13 -13 -13 -13 -13 -12 -12 -12 -12 -12 -12 -12 -11 -11 -11 -11 -11 -11 -10 -10 -10
-12 -12 -13 -13 -13 -13 -13 -13 -13 -13 -13 -13 -13 -13 -12 -12 -13 -13 -13 -13 -13 -13 -13 -13 -13 -13 -13 -12 -12 -12 -12 -12 -12 -12 -11 -11 -11 -11 -11 -11 -10 -10
-12 -12 -13 -13 -13 -13 -13 -13 -13 -13 -13 -13 -13 -13 -13 -13 -13 -13 -13 -13 -13 -13 -13 -13 -13 -13 -13 -13 -12 -12 -12 -12 -12 -12 -11 -11 -11 -10 -11 -10 -10 -10
-12 -13 -13 -13 -13 -13 -13 -13 -13 -13 -14 -14 -13 -13 -13 -13 -13 -13 -13 -13 -13 -13 -13 -13 -13 -13 -13 -13 -12 -12 -12 -12 -12 -11 -11 -11 -11 -11 -10 -10 -10 -10
-12 -13 -13 -13 -13 -13 -13 -13 -13 -13 -14 -14 -14 -13 -13 -13 -13 -13 -13 -13 -14 -14 -14 -13 -13 -13 -13 -13 -13 -12 -12 -12 -11 -11 -11 -11 -11 -11 -10 -10 -10 -9
-12 -13 -13 -13 -13 -13 -13 -13 -13 -14 -14 -14 -14 -14 -14 -13 -14 -14 -13 -13 -14 -14 -14 -14 -13 -13 -13 -13 -13 -12 -12 -11 -11 -11 -11 -11 -11 -10 -10 -10 -10 -9
-13 -13 -13 -13 -13 -13 -13 -14 -14 -14 -14 -14 -14 -14 -14 -14 -14 -14 -14 -14 -14 -14 -14 -14 -14 -13 -13 -13 -13 -13 -12 -11 -11 -11 -11 -11 -11 -10 -10 -10 -10 -9
-13 -13 -13 -13 -13 -13 -14 -14 -14 -14 -14 -15 -14 -14 -14 -14 -14 -14 -14 -14 -14 -14 -14 -14 -14 -14 -13 -13 -13 -12 -12 -11 -11 -11 -11 -11 -11 -10 -10 -10 -9 -9
-14 -14 -14 -14 -14 -14 -14 -14 -14 -14 -15 -15 -15 -14 -14 -14 -14 -14 -14 -14 -14 -15 -15 -15 -14 -14 -14 -13 -13 -13 -12 -12 -11 -11 -11 -11 -10 -10 -10 -10 -10 -9
-14 -14 -14 -14 -14 -14 -14 -14 -14 -15 -15 -15 -15 -15 -14 -14 -14 -14 -15 -14 -15 -15 -15 -15 -15 -14 -14 -14 -13 -13 -12 -12 -11 -11 -11 -11 -10 -10 -10 -10 -10 -10
Height
5846 5843 5840 5837 5834 5831 5828 5825 5822 5820 5817 5815 5813 5810 5808 5807 5806 5804 5803 5802 5801 5801 5801 5801 5801 5800 5800 5800 5801 5802 5802 5803 5804 5806 5806 5807 5809 5810 5811 5812 5812 5813
5842 5839 5837 5833 5830 5827 5824 5820 5817 5815 5812 5810 5807 5805 5803 5801 5800 5799 5798 5797 5795 5795 5795 5794 5794 5794 5794 5794 5794 5795 5796 5797 5798 5799 5800 5801 5803 5804 5806 5806 5807 5808
5838 5835 5832 5829 5826 5823 5819 5816 5813 5810 5807 5804 5802 5800 5798 5796 5794 5793 5792 5792 5790 5789 5789 5788 5788 5788 5787 5787 5787 5788 5789 5790 5791 5792 5793 5795 5797 5798 5800 5801 5801 5803
5833 5830 5827 5824 5821 5818 5815 5811 5808 5805 5802 5799 5796 5794 5793 5791 5789 5788 5786 5786 5785 5784 5783 5782 5782 5781 5780 5780 5780 5781 5782 5784 5785 5785 5786 5788 5790 5791 5793 5794 5795 5797
5829 5825 5822 5819 5816 5813 5809 5806 5803 5800 5798 5795 5792 5790 5788 5786 5784 5782 5780 5779 5778 5777 5776 5776 5775 5774 5774 5773 5773 5774 5775 5777 5778 5778 5779 5780 5782 5784 5786 5787 5789 5791
5824 5820 5817 5814 5810 5807 5804 5801 5799 5796 5793 5790 5788 5785 5783 5781 5779 5776 5774 5772 5771 5770 5769 5768 5768 5767 5767 5767 5766 5767 5768 5769 5771 5772 5772 5774 5775 5777 5779 5780 5782 5784
5819 5816 5812 5809 5805 5802 5799 5796 5794 5792 5789 5786 5784 5781 5779 5776 5774 5771 5769 5766 5764 5763 5762 5761 5761 5760 5760 5759 5759 5760 5760 5762 5763 5765 5766 5768 5769 5770 5772 5773 5775 5778
5815 5812 5808 5805 5802 5798 5795 5792 5790 5787 5785 5782 5780 5777 5774 5771 5768 5766 5763 5761 5759 5757 5756 5755 5754 5754 5753 5752 5752 5753 5754 5755 5756 5757 5759 5761 5762 5764 5766 5767 5769 5771
5811 5808 5805 5801 5798 5795 5792 5788 5786 5783 5781 5778 5776 5773 5770 5766 5763 5761 5758 5756 5754 5752 5750 5749 5748 5747 5747 5746 5746 5746 5747 5749 5750 5751 5752 5754 5756 5758 5759 5761 5763 5765
5807 5804 5801 5798 5794 5791 5788 5785 5782 5779 5777 5775 5772 5769 5765 5762 5759 5756 5754 5751 5749 5747 5745 5744 5743 5742 5741 5741 5740 5741 5741 5743 5744 5745 5746 5747 5749 5751 5753 5755 5757 5759
5804 5801 5797 5794 5790 5787 5784 5781 5778 5775 5773 5771 5768 5765 5761 5758 5755 5752 5750 5747 5745 5743 5741 5739 5738 5737 5737 5736 5735 5735 5736 5736 5737 5738 5739 5741 5743 5744 5746 5749 5751 5753
5800 5797 5793 5790 5787 5784 5781 5777 5774 5772 5769 5767 5764 5761 5758 5755 5751 5748 5745 5743 5741 5739 5737 5735 5734 5733 5732 5732 5731 5730 5730 5731 5731 5732 5733 5734 5736 5738 5740 5743 5745 5747
5796 5793 5789 5785 5782 5780 5777 5773 5770 5768 5766 5763 5760 5757 5754 5751 5748 5745 5742 5740 5738 5735 5733 5732 5731 5729 5728 5727 5726 5725 5725 5725 5726 5727 5728 5729 5730 5732 5734 5737 5739 5740
5791 5788 5785 5781 5778 5776 5773 5770 5767 5765 5762 5760 5757 5754 5751 5748 5745 5742 5739 5737 5735 5732 5730 5729 5728 5726 5724 5724 5723 5721 5721 5721 5721 5722 5723 5724 5726 5727 5729 5731 5733 5734
5787 5784 5781 5777 5774 5772 5769 5766 5763 5761 5759 5757 5754 5751 5748 5746 5743 5740 5737 5734 5732 5730 5728 5727 5725 5723 5721 5720 5719 5718 5717 5717 5717 5718 5719 5720 5721 5723 5724 5725 5727 5729
5783 5780 5777 5774 5771 5768 5766 5763 5761 5758 5755 5753 5751 5748 5745 5743 5740 5737 5734 5731 5729 5727 5725 5724 5723 5720 5718 5717 5716 5715 5714 5713 5712 5713 5714 5716 5717 5719 5720 5721 5722 5723
5779 5776 5773 5770 5767 5764 5762 5760 5757 5755 5752 5750 5747 5745 5742 5739 5737 5734 5731 5728 5726 5724 5722 5721 5720 5718 5716 5714 5713 5712 5711 5710 5709 5709 5710 5711 5713 5714 5715 5716 5717 5719
5776 5773 5770 5767 5764 5761 5758 5756 5754 5752 5749 5746 5743 5741 5739 5736 5734 5731 5728 5726 5724 5721 5719 5718 5717 5715 5713 5711 5709 5708 5707 5707 5706 5705 5706 5707 5708 5709 5711 5712 5713 5715
5772 5769 5766 5763 5760 5757 5755 5752 5750 5748 5746 5743 5740 5738 5736 5733 5731 5728 5726 5723 5721 5719 5717 5715 5713 5712 5710 5708 5707 5705 5704 5703 5703 5703 5703 5704 5704 5706 5707 5708 5709 5710
5768 5765 5762 5759 5756 5754 5752 5749 5747 5745 5743 5740 5737 5735 5733 5730 5728 5725 5723 5721 5719 5716 5714 5712 5710 5709 5708 5706 5704 5703 5702 5700 5700 5700 5700 5701 5701 5702 5703 5704 5705 5706
5764 5761 5758 5755 5752 5750 5748 5746 5743 5741 5739 5737 5735 5732 5730 5728 5725 5722 5720 5718 5716 5714 5712 5710 5708 5706 5705 5703 5701 5700 5699 5698 5697 5697 5698 5698 5699 5699 5700 5700 5701 5701
5760 5757 5754 5751 5749 5746 5744 5742 5740 5738 5736 5734 5732 5729 5727 5725 5722 5720 5718 5716 5713 5712 5710 5707 5705 5703 5702 5701 5699 5697 5696 5695 5694 5695 5695 5695 5696 5696 5696 5696 5696 5697
5756 5753 5750 5748 5745 5743 5740 5738 5736 5734 5732 5731 5729 5726 5724 5722 5719 5717 5715 5713 5711 5709 5707 5705 5703 5701 5699 5698 5697 5695 5693 5693 5693 5692 5692 5692 5692 5692 5692 5692 5693 5694
5751 5749 5746 5744 5741 5739 5737 5734 5732 5731 5729 5727 5726 5724 5722 5719 5717 5714 5713 5711 5709 5707 5705 5703 5701 5699 5697 5696 5695 5693 5691 5691 5691 5690 5690 5689 5688 5688 5688 5689 5689 5690
5746 5744 5742 5739 5737 5735 5733 5731 5729 5727 5725 5724 5722 5721 5719 5717 5714 5712 5710 5708 5706 5704 5703 5701 5699 5697 5696 5694 5693 5691 5690 5688 5688 5688 5687 5685 5684 5685 5686 5686 5686 5686
5742 5740 5738 5735 5733 5731 5729 5727 5725 5724 5722 5721 5719 5717 5716 5714 5712 5710 5708 5706 5704 5702 5701 5699 5697 5695 5694 5692 5691 5689 5688 5686 5685 5685 5684 5682 5682 5683 5684 5684 5683 5684
Wind_Speed
35 36 37 38 40 41 42 43 44 44 44 44 43 43 42 40 39 38 38 38 37 35 35 36 37 39 40 40 39 39 39 42 43 42 42 43 43 43 43 43 44 44
37 37 38 38 40 41 43 44 45 45 44 44 43 42 41 40 39 37 36 37 36 35 35 35 35 37 39 41 42 40 39 39 40 41 42 42 43 44 44 45 45 45
39 39 39 40 40 42 43 44 45 45 44 43 42 41 41 40 39 38 37 36 37 36 35 35 35 36 38 41 43 43 42 40 40 42 43 44 44 44 44 45 46 46
41 41 41 42 42 43 44 45 45 43 43 42 42 41 40 39 39 39 38 38 37 38 36 36 36 36 38 41 43 44 44 44 43 44 45 45 45 45 44 44 46 46
42 43 43 44 45 46 46 46 44 43 42 41 41 40 40 40 40 40 40 39 38 38 37 36 36 37 38 40 43 44 44 45 45 45 45 45 45 45 44 44 44 45
43 44 45 46 47 48 47 46 44 42 41 41 40 40 40 40 40 40 40 39 38 38 38 38 37 37 38 38 41 43 44 44 44 44 44 44 44 44 43 43 43 44
45 46 47 48 48 48 47 45 43 41 40 40 39 39 39 38 38 37 37 37 37 37 38 39 39 38 38 38 38 40 42 43 43 43 43 43 43 43 43 42 42 44
46 47 48 48 48 47 46 44 41 39 38 38 38 38 38 37 36 35 35 36 37 37 37 38 38 37 37 38 37 37 39 41 42 42 42 42 42 42 42 42 41 43
47 48 49 48 47 46 43 41 39 37 37 37 37 37 36 36 35 34 34 35 36 36 35 35 36 36 37 38 36 34 35 38 39 40 40 40 40 40 42 42 41 42
48 48 48 48 46 44 41 39 36 35 35 35 35 35 34 34 34 34 34 35 35 34 33 33 32 33 34 35 34 32 32 35 37 38 39 39 39 39 41 42 41 41
48 49 48 47 45 42 40 37 35 33 33 33 33 33 33 32 33 34 34 33 32 31 31 31 30 31 32 33 33 32 32 33 35 37 37 36 36 38 39 40 40 41
49 49 48 46 44 41 39 37 33 31 31 31 32 32 32 32 32 34 35 34 32 31 30 29 28 29 30 31 32 32 31 32 33 35 36 35 34 35 37 38 39 40
50 49 47 46 44 40 38 36 32 30 29 30 31 32 32 32 32 34 35 35 32 30 28 27 27 28 28 28 30 30 29 29 30 32 34 35 34 35 36 36 37 39
51 49 47 45 43 39 37 34 31 29 28 29 30 31 32 32 32 33 34 34 32 28 26 27 27 27 28 26 26 27 28 29 30 31 33 33 33 34 35 36 37 38
51 49 46 44 41 38 36 33 30 29 29 29 29 31 32 32 32 31 32 33 32 29 27 29 28 26 26 25 24 25 27 30 32 32 31 31 32 33 34 35 36 38
51 48 45 43 40 38 36 33 31 31 30 30 30 31 33 33 33 32 31 31 32 31 29 29 28 26 25 25 25 24 25 27 30 32 32 30 29 30 32 33 35 37
50 47 44 42 40 38 37 35 33 32 31 31 31 32 32 33 33 32 31 31 31 31 29 28 28 28 26 24 25 25 24 23 25 30 32 29 28 28 29 32 34 35
49 47 44 42 39 38 38 37 35 33 31 32 32 32 31 32 33 32 31 30 30 30 30 28 26 26 26 25 25 25 24 22 21 26 30 29 29 29 29 31 33 34
48 47 45 43 40 37 37 37 36 33 31 31 32 31 31 31 32 32 30 29 29 29 29 27 24 23 24 27 27 25 25 24 21 22 26 28 29 29 28 29 32 34
48 47 46 43 40 37 36 36 36 34 32 31 31 31 29 30 31 31 30 28 27 27 27 25 22 21 22 26 27 25 24 24 22 21 23 26 27 27 27 29 31 33
48 47 46 43 39 36 36 36 36 34 32 31 30 30 28 29 30 30 29 28 27 26 26 23 21 22 22 23 26 26 23 22 23 21 21 22 22 23 24 26 28 30
48 47 45 42 38 36 36 37 36 34 32 31 30 29 28 28 30 30 29 28 27 26 26 23 21 24 24 22 23 25 22 19 20 20 20 21 21 22 23 24 24 26
46 45 43 40 37 36 36 37 36 34 32 31 30 28 27 27 29 29 28 27 26 26 26 25 24 25 25 22 20 22 21 17 16 17 20 23 24 24 23 22 22 24
44 43 41 39 37 35 35 35 34 32 31 30 28 26 25 26 28 28 27 26 26 26 26 27 26 26 26 24 19 18 17 14 12 12 17 23 26 26 23 21 21 24
42 40 39 38 37 35 34 33 32 30 29 28 26 24 23 25 26 26 25 24 25 26 26 27 28 27 26 25 21 17 15 15 16 14 15 18 22 23 21 20 22 24
40 38 38 38 36 34 32 31 30 28 26 25 24 23 22 23 25 25 23 23 24 26 27 28 29 28 26 26 25 20 15 15 17 16 12 10 12 15 15 15 19 23
Wind_Direction
320 318 316 314 312 311 311 311 312 313 313 312 310 307 304 301 298 295 291 289 285 282 278 274 270 267 264 259 255 253 251 248 247 248 248 248 248 249 250 249 247 247
321 319 317 315 313 311 311 311 313 313 313 313 310 308 305 302 300 297 294 291 289 286 281 277 271 265 261 258 254 251 250 248 248 249 249 248 248 248 248 247 245 245
323 321 319 317 315 313 312 313 314 315 314 313 311 309 306 303 301 299 296 293 292 290 286 282 277 269 261 257 254 251 248 247 247 249 249 248 247 247 247 246 245 243
323 321 320 319 318 316 315 315 316 315 315 313 311 308 306 304 302 300 297 295 293 291 288 285 281 276 268 259 254 250 247 246 247 249 249 249 248 247 246 246 245 243
322 321 320 320 319 318 318 317 317 316 315 313 311 309 307 305 303 300 298 295 293 290 287 284 281 279 274 266 258 253 248 246 247 248 249 249 249 248 246 245 244 244
323 322 322 321 320 319 319 318 318 317 315 313 311 309 307 305 303 301 299 296 293 289 287 284 281 278 276 271 263 256 251 248 247 247 248 248 248 247 246 244 244 245
324 324 323 322 320 319 319 318 318 318 316 314 313 311 309 307 304 301 298 295 292 289 287 284 282 278 275 272 266 259 254 250 248 247 247 246 246 246 246 244 244 245
325 325 323 321 319 319 318 318 318 319 317 315 314 313 312 309 306 302 299 297 295 292 289 286 283 278 274 271 267 261 256 253 250 249 248 246 245 244 244 243 242 243
325 324 322 320 318 318 318 317 319 318 317 316 315 315 314 311 308 306 304 302 299 297 294 289 284 279 274 270 268 263 258 255 252 250 249 248 246 243 241 241 240 240
323 323 322 320 319 318 317 317 318 317 316 316 315 315 314 312 310 310 309 306 302 299 297 292 286 280 275 271 269 266 260 256 253 251 249 248 246 244 242 241 241 241
322 322 321 320 319 318 317 317 316 315 315 316 316 316 316 314 313 313 312 310 306 302 298 294 287 280 275 273 273 270 263 257 253 251 250 247 244 243 242 241 241 241
321 321 321 320 320 318 317 317 315 314 316 317 318 319 318 316 315 314 314 313 310 304 298 293 287 279 274 276 280 276 265 258 253 250 250 249 244 243 242 241 241 240
320 321 321 320 319 318 318 318 315 314 316 318 320 322 321 319 317 316 317 315 310 306 302 295 289 283 279 281 284 279 267 258 252 248 249 250 247 244 242 240 239 237
320 321 321 321 319 318 319 320 317 315 316 317 319 322 322 321 319 318 318 315 309 309 312 309 299 288 282 282 283 281 272 261 252 248 248 247 246 243 240 238 235 234
319 321 322 321 319 317 319 321 319 316 315 315 317 320 321 322 321 318 317 316 310 306 308 312 307 293 281 276 275 276 274 266 255 249 247 245 243 241 239 236 235 234
318 321 322 321 318 316 316 318 318 317 315 313 313 315 318 320 321 319 316 316 314 308 303 304 304 297 288 281 278 275 272 267 258 247 242 241 242 242 240 237 235 235
318 319 321 321 318 315 313 314 314 314 313 311 310 311 314 317 319 319 317 316 316 311 305 301 298 296 295 290 287 282 274 268 258 244 236 234 238 241 240 238 236 236
317 318 320 320 318 314 312 311 311 311 310 308 307 307 310 313 316 318 317 316 316 311 306 300 293 293 296 293 289 286 278 269 259 244 235 233 237 238 238 238 237 236
316 318 319 320 317 312 309 308 308 309 308 305 304 305 308 311 313 315 316 316 316 312 305 298 288 290 300 298 292 289 282 273 263 248 239 239 241 240 239 240 239 238
316 317 319 319 316 310 306 305 305 307 307 304 303 303 306 309 310 312 314 315 316 313 305 294 284 286 300 303 296 292 285 274 266 256 247 244 244 244 245 246 245 243
316 317 318 318 316 310 305 303 303 304 305 304 303 303 305 307 308 310 312 313 316 315 306 294 282 281 296 308 302 295 289 276 268 263 255 248 247 249 251 252 250 246
315 316 316 317 315 310 304 302 301 302 302 302 302 303 304 306 306 308 310 312 314 315 309 299 288 283 293 309 310 303 295 281 272 266 256 248 249 253 255 256 251 243
313 315 315 315 313 308 303 301 301 301 300 299 300 302 303 304 305 306 310 311 312 314 311 305 299 294 296 305 314 311 302 286 273 267 257 250 252 254 255 256 250 240
313 314 315 314 312 307 303 302 302 301 300 298 298 300 302 302 303 305 309 310 310 311 312 309 306 305 304 304 307 308 300 277 256 261 262 254 252 253 252 252 248 240
312 314 315 313 310 307 305 304 303 302 300 297 297 299 301 300 301 303 306 308 308 308 311 312 310 311 311 308 304 304 293 264 246 254 265 254 244 244 245 247 249 245
311 314 314 312 309 307 306 305 304 302 299 296 296 299 301 299 299 301 304 306 306 307 310 313 313 314 315 313 308 306 301 279 260 253 255 250 238 236 237 243 250 249